| time (UTC) | temp F | wind direction | speed knots | gust knots | rain 1hr in | rain 24hr in | rain mn in | humidity % | barometer mb |
| 20260503030012 | 61 | 268 | 3.5 | 8.7 | 0.00 | 0.00 | 0.00 | 87 | 1011.2 |
| 20260503024513 | 62 | 269 | 2.6 | 9.6 | 0.00 | 0.00 | 0.00 | 86 | 1010.9 |
| 20260503023011 | 62 | 239 | 4.3 | 11.3 | 0.00 | 0.00 | 0.00 | 86 | 1010.7 |
| 20260503021506 | 63 | 269 | 6.1 | 10.4 | 0.00 | 0.00 | 0.00 | 85 | 1010.7 |
| 20260503020006 | 63 | 279 | 7.0 | 13.0 | 0.00 | 0.00 | 0.00 | 84 | 1010.5 |
| 20260503014505 | 63 | 252 | 6.1 | 13.9 | 0.00 | 0.00 | 0.00 | 84 | 1010.5 |
| 20260503013004 | 64 | 279 | 9.6 | 14.8 | 0.00 | 0.00 | 0.00 | 82 | 1010.5 |
| 20260503011503 | 65 | 260 | 7.0 | 14.8 | 0.00 | 0.00 | 0.00 | 81 | 1010.5 |
| 20260503010002 | 65 | 266 | 7.8 | 14.8 | 0.00 | 0.00 | 0.00 | 80 | 1010.5 |
| 20260503004508 | 66 | 260 | 7.8 | 14.8 | 0.00 | 0.00 | 0.00 | 79 | 1010.5 |
| 20260503003100 | 66 | 285 | 7.0 | 15.6 | 0.00 | 0.00 | 0.00 | 79 | 1010.5 |
| 20260503001559 | 66 | 250 | 7.8 | 16.5 | 0.00 | 0.00 | 0.00 | 79 | 1010.7 |
| 20260503000059 | 66 | 277 | 7.0 | 15.6 | 0.00 | 0.00 | 0.00 | 78 | 1010.7 |
| 20260502234556 | 67 | 235 | 7.8 | 16.5 | 0.00 | 0.00 | 0.00 | 76 | 1010.7 |
| 20260502233153 | 67 | 259 | 9.6 | 15.6 | 0.00 | 0.00 | 0.00 | 77 | 1010.8 |
| 20260502231553 | 67 | 252 | 11.3 | 15.6 | 0.00 | 0.00 | 0.00 | 76 | 1010.8 |
| 20260502230050 | 67 | 271 | 10.4 | 15.6 | 0.00 | 0.00 | 0.00 | 75 | 1010.9 |
| 20260502224602 | 68 | 257 | 8.7 | 13.9 | 0.00 | 0.00 | 0.00 | 75 | 1011.3 |
| 20260502223046 | 68 | 267 | 6.1 | 13.9 | 0.00 | 0.00 | 0.00 | 75 | 1011.7 |
| 20260502221543 | 68 | 221 | 6.1 | 13.0 | 0.00 | 0.00 | 0.00 | 75 | 1012.1 |
| 20260502220042 | 68 | 259 | 7.0 | 14.8 | 0.00 | 0.00 | 0.00 | 75 | 1012.3 |
| 20260502214541 | 69 | 263 | 5.2 | 13.0 | 0.00 | 0.00 | 0.00 | 76 | 1012.5 |
| 20260502213037 | 69 | 266 | 4.3 | 13.0 | 0.00 | 0.00 | 0.00 | 77 | 1012.7 |
| 20260502211541 | 68 | 273 | 4.3 | 13.9 | 0.00 | 0.00 | 0.00 | 77 | 1012.9 |
| 20260502210038 | 69 | 243 | 4.3 | 10.4 | 0.00 | 0.00 | 0.00 | 76 | 1013.0 |
| 20260502204530 | 69 | 283 | 5.2 | 10.4 | 0.00 | 0.00 | 0.00 | 76 | 1013.1 |
| 20260502203029 | 69 | 227 | 1.7 | 7.0 | 0.00 | 0.00 | 0.00 | 76 | 1013.0 |
| 20260502201525 | 68 | 236 | 3.5 | 9.6 | 0.00 | 0.00 | 0.00 | 77 | 1013.2 |
| 20260502200026 | 67 | 216 | 4.3 | 10.4 | 0.00 | 0.00 | 0.00 | 78 | 1013.5 |
| 20260502194523 | 67 | 242 | 4.3 | 12.2 | 0.00 | 0.00 | 0.00 | 79 | 1013.9 |
| 20260502193019 | 66 | 255 | 2.6 | 8.7 | 0.00 | 0.00 | 0.00 | 81 | 1013.7 |
| 20260502191518 | 66 | 247 | 1.7 | 7.8 | 0.00 | 0.00 | 0.00 | 82 | 1013.9 |
| 20260502190015 | 65 | 254 | 0.9 | 7.8 | 0.00 | 0.00 | 0.00 | 83 | 1014.2 |
| 20260502184511 | 65 | 246 | 2.6 | 7.8 | 0.00 | 0.00 | 0.00 | 82 | 1014.3 |
| 20260502183022 | 65 | 231 | 4.3 | 8.7 | 0.00 | 0.00 | 0.00 | 82 | 1014.3 |
| 20260502181514 | 64 | 280 | 0.0 | 0.0 | 0.00 | 0.00 | 0.00 | 84 | 1014.2 |
| 20260502163057 | 61 | 242 | 0.9 | 5.2 | 0.00 | 0.00 | 0.00 | 90 | 1015.1 |
| 20260502161551 | 61 | 287 | 1.7 | 4.3 | 0.00 | 0.00 | 0.00 | 90 | 1015.0 |
| 20260502151540 | 0 | 0.0 | 0.0 | 0.00 | 0.00 | 0.00 | 1014.9 | ||
| 20260502123046 | 0 | 0.0 | 0.0 | 0.00 | 0.00 | 0.00 | 1013.7 | ||
| 20260502121539 | 0 | 0.0 | 0.0 | 0.00 | 0.00 | 0.00 | 1013.6 | ||
| 20260502114531 | 0 | 0.0 | 0.0 | 0.00 | 0.00 | 0.00 | 1013.4 | ||
| 20260502113028 | 61 | 270 | 0.0 | 3.5 | 0.00 | 0.00 | 0.00 | 91 | 1013.3 |
| 20260502111523 | 61 | 215 | 0.9 | 3.5 | 0.00 | 0.00 | 0.00 | 91 | 1013.3 |
| 20260502110022 | 61 | 289 | 0.0 | 0.0 | 0.00 | 0.00 | 0.00 | 91 | 1013.4 |
| 20260502104524 | 61 | 289 | 0.0 | 0.0 | 0.00 | 0.00 | 0.00 | 91 | 1013.1 |
| 20260502103022 | 61 | 289 | 0.0 | 2.6 | 0.00 | 0.00 | 0.00 | 92 | 1013.2 |
| 20260502101539 | 60 | 289 | 1.7 | 4.3 | 0.00 | 0.00 | 0.00 | 92 | 1013.0 |
| 20260502091514 | 60 | 277 | 1.7 | 4.3 | 0.00 | 0.00 | 0.00 | 93 | 1013.1 |
| 20260502070116 | 60 | 277 | 1.7 | 4.3 | 0.00 | 0.00 | 0.00 | 91 | 1014.0 |
| 20260502064557 | 60 | 277 | 1.7 | 3.5 | 0.00 | 0.00 | 0.00 | 91 | 1013.9 |
| 20260502063059 | 60 | 277 | 1.7 | 5.2 | 0.00 | 0.00 | 0.00 | 91 | 1014.0 |
| 20260502061554 | 61 | 278 | 0.0 | 6.1 | 0.00 | 0.00 | 0.00 | 90 | 1013.8 |
| 20260502060052 | 61 | 277 | 1.7 | 4.3 | 0.00 | 0.00 | 0.00 | 90 | 1013.8 |
| 20260502054555 | 61 | 279 | 2.6 | 6.1 | 0.00 | 0.00 | 0.00 | 90 | 1013.7 |
| 20260502053049 | 61 | 290 | 0.9 | 4.3 | 0.00 | 0.00 | 0.00 | 90 | 1013.9 |
| 20260502051610 | 61 | 286 | 2.6 | 6.1 | 0.00 | 0.00 | 0.00 | 90 | 1013.9 |
| 20260502050053 | 61 | 284 | 2.6 | 5.2 | 0.00 | 0.00 | 0.00 | 90 | 1013.8 |
| 20260502044548 | 62 | 286 | 2.6 | 7.8 | 0.00 | 0.00 | 0.00 | 90 | 1013.7 |
| 20260502043051 | 62 | 282 | 2.6 | 7.0 | 0.00 | 0.00 | 0.00 | 90 | 1013.5 |
| 20260502041548 | 62 | 264 | 1.7 | 10.4 | 0.00 | 0.00 | 0.00 | 89 | 1013.2 |
| 20260502040055 | 62 | 272 | 3.5 | 7.8 | 0.00 | 0.00 | 0.00 | 89 | 1013.1 |
| 20260502034541 | 62 | 285 | 4.3 | 9.6 | 0.00 | 0.00 | 0.00 | 89 | 1012.8 |
| 20260502033042 | 62 | 272 | 5.2 | 11.3 | 0.00 | 0.00 | 0.00 | 89 | 1012.6 |
| 20260502031541 | 62 | 273 | 6.1 | 11.3 | 0.00 | 0.00 | 0.00 | 88 | 1012.5 |